﻿_id,日時,平均風速(m/s),平均風向,最大瞬間風速(m/s),最大風速時風向,気温(℃),湿度(%),10分間移動積算雨量(mm),1時間移動積算雨量(mm),日雨量(mm),累計雨量(mm)
1,2024-05-27T00:00:00,2.6,北西,5,西北西,21.7,66.2,0,0,0,0
2,2024-05-27T00:01:00,2.8,北西,5.8,西,21.7,66.1,0,0,0,0
3,2024-05-27T00:02:00,3,西北西,6.7,西南西,21.7,66.1,0,0,0,0
4,2024-05-27T00:03:00,3,西北西,6.7,西南西,21.7,66.2,0,0,0,0
5,2024-05-27T00:04:00,2.9,西北西,6.7,西南西,21.7,66.6,0,0,0,0
6,2024-05-27T00:05:00,2.9,西北西,6.7,西南西,21.7,66.6,0,0,0,0
7,2024-05-27T00:06:00,3,西,6.7,西南西,21.7,66.7,0,0,0,0
8,2024-05-27T00:07:00,2.9,西,6.7,西南西,21.6,66.5,0,0,0,0
9,2024-05-27T00:08:00,2.8,西北西,6.7,西南西,21.6,66.4,0,0,0,0
10,2024-05-27T00:09:00,2.7,西北西,6.7,西南西,21.6,66.5,0,0,0,0
11,2024-05-27T00:10:00,2.9,西北西,7.1,南東,21.6,66,0,0,0,0
12,2024-05-27T00:11:00,3.1,北西,7.6,南東,21.6,66,0,0,0,0
13,2024-05-27T00:12:00,3.1,北北西,7.6,南東,21.6,65.9,0,0,0,0
14,2024-05-27T00:13:00,3.1,東,7.6,南東,21.6,65.9,0,0,0,0
15,2024-05-27T00:14:00,3,東,7.6,南東,21.6,65.9,0,0,0,0
16,2024-05-27T00:15:00,2.8,東,7.6,南東,21.7,66,0,0,0,0
17,2024-05-27T00:16:00,2.6,東,7.6,南東,21.6,65.9,0,0,0,0
18,2024-05-27T00:17:00,2.5,東,7.6,南東,21.6,65.9,0,0,0,0
19,2024-05-27T00:18:00,2.6,東,7.6,南東,21.6,66.2,0,0,0,0
20,2024-05-27T00:19:00,2.5,東,7.6,南東,21.6,66.5,0,0,0,0
21,2024-05-27T00:20:00,2.1,東,7.6,南東,21.5,66.6,0,0,0,0
22,2024-05-27T00:21:00,1.7,東,5.6,南東,21.5,66.6,0,0,0,0
23,2024-05-27T00:22:00,1.5,東,5.6,南東,21.6,66.5,0,0,0,0
24,2024-05-27T00:23:00,1.3,北東,4.6,東南東,21.6,66.6,0,0,0,0
25,2024-05-27T00:24:00,1.4,北東,4.6,東南東,21.6,66.6,0,0,0,0
26,2024-05-27T00:25:00,1.4,北北東,4.6,東南東,21.6,66.6,0,0,0,0
27,2024-05-27T00:26:00,1.3,北,3.4,北北西,21.6,66.7,0,0,0,0
28,2024-05-27T00:27:00,1.4,北北東,3.4,北北西,21.6,66.5,0,0,0,0
29,2024-05-27T00:28:00,1.5,北北東,4.5,東北東,21.6,66.5,0,0,0,0
30,2024-05-27T00:29:00,1.7,北東,4.8,東北東,21.6,66.1,0,0,0,0
31,2024-05-27T00:30:00,1.8,北東,4.8,東北東,21.7,66,0,0,0,0
32,2024-05-27T00:31:00,1.9,北東,4.8,東北東,21.6,65.9,0,0,0,0
33,2024-05-27T00:32:00,1.9,北東,4.8,東北東,21.7,65.9,0,0,0,0
34,2024-05-27T00:33:00,1.9,東北東,4.8,東北東,21.6,66.1,0,0,0,0
35,2024-05-27T00:34:00,1.9,東北東,4.8,東北東,21.6,66.2,0,0,0,0
36,2024-05-27T00:35:00,1.9,東北東,4.8,東北東,21.6,66.4,0,0,0,0
37,2024-05-27T00:36:00,2.2,東北東,5.3,北西,21.6,66.5,0,0,0,0
38,2024-05-27T00:37:00,2.4,北東,5.6,北西,21.6,66.5,0,0,0,0
39,2024-05-27T00:38:00,2.5,北,6.2,西北西,21.6,66.7,0,0,0,0
40,2024-05-27T00:39:00,2.6,北北西,6.2,西北西,21.6,66.8,0,0,0,0
41,2024-05-27T00:40:00,2.6,北北西,6.2,西北西,21.5,66.8,0,0,0,0
42,2024-05-27T00:41:00,2.7,北北西,6.2,西北西,21.5,66.7,0,0,0,0
43,2024-05-27T00:42:00,3,北北西,7.3,西北西,21.6,67.2,0,0,0,0
44,2024-05-27T00:43:00,3.2,北北西,7.3,西北西,21.6,67.2,0,0,0,0
45,2024-05-27T00:44:00,3.4,北北西,7.3,西北西,21.7,67,0,0,0,0
46,2024-05-27T00:45:00,3.5,北西,7.3,西北西,21.7,66.8,0,0,0,0
47,2024-05-27T00:46:00,3.5,北西,7.3,西北西,21.7,66.4,0,0,0,0
48,2024-05-27T00:47:00,3.5,北北西,7.3,西北西,21.6,66.4,0,0,0,0
49,2024-05-27T00:48:00,3.6,北北西,9.1,西北西,21.6,66.4,0,0,0,0
50,2024-05-27T00:49:00,3.9,北西,10,西,21.7,66.6,0,0,0,0
51,2024-05-27T00:50:00,3.9,北西,10,西,21.7,66.3,0,0,0,0
52,2024-05-27T00:51:00,3.9,北西,10,西,21.7,66.2,0,0,0,0
53,2024-05-27T00:52:00,3.9,北西,10,西,21.7,66.3,0,0,0,0
54,2024-05-27T00:53:00,4,北西,10,西,21.7,66.2,0,0,0,0
55,2024-05-27T00:54:00,4,北西,10,西,21.7,66.4,0,0,0,0
56,2024-05-27T00:55:00,4.1,北西,10,西,21.7,66.4,0,0,0,0
57,2024-05-27T00:56:00,4.1,北西,10,西,21.7,66.7,0,0,0,0
58,2024-05-27T00:57:00,3.8,西北西,10,西,21.7,66.4,0,0,0,0
59,2024-05-27T00:58:00,3.6,西北西,10,西,21.7,66.9,0,0,0,0
60,2024-05-27T00:59:00,3.4,西北西,6.9,西南西,21.8,66.8,0,0,0,0
61,2024-05-27T01:00:00,3.4,西北西,6.9,西南西,21.8,66.2,0,0,0,0
62,2024-05-27T01:01:00,3.5,西北西,6.9,西南西,21.8,66.1,0,0,0,0
63,2024-05-27T01:02:00,3.3,西北西,6.9,西南西,21.7,66.4,0,0,0,0
64,2024-05-27T01:03:00,3.5,西北西,7.7,西,21.8,66.3,0,0,0,0
65,2024-05-27T01:04:00,3.9,西北西,9.4,西,21.8,66.5,0,0,0,0
66,2024-05-27T01:05:00,4,西北西,9.6,西北西,21.8,66,0,0,0,0
67,2024-05-27T01:06:00,4.1,西北西,9.6,西北西,21.8,66.4,0,0,0,0
68,2024-05-27T01:07:00,4.6,西北西,10.3,西南西,21.8,66.6,0,0,0,0
69,2024-05-27T01:08:00,4.9,西北西,10.3,西南西,21.8,66.3,0,0,0,0
70,2024-05-27T01:09:00,4.8,西,10.3,西南西,21.8,66.3,0,0,0,0
71,2024-05-27T01:10:00,4.7,西,10.3,西南西,21.8,66.3,0,0,0,0
72,2024-05-27T01:11:00,4.5,西,10.3,西南西,21.7,66.8,0,0,0,0
73,2024-05-27T01:12:00,4.4,西北西,10.3,西南西,21.7,67.1,0,0,0,0
74,2024-05-27T01:13:00,4.2,西北西,10.3,西南西,21.8,67.3,0,0,0,0
75,2024-05-27T01:14:00,3.9,西北西,10.3,西南西,21.9,67.6,0,0,0,0
76,2024-05-27T01:15:00,3.6,西北西,10.3,西南西,21.8,67.4,0,0,0,0
77,2024-05-27T01:16:00,3.5,西北西,10.3,西南西,21.8,66.8,0,0,0,0
78,2024-05-27T01:17:00,3,西北西,8.6,南,21.8,67,0,0,0,0
79,2024-05-27T01:18:00,2.6,西北西,6.2,西北西,21.8,67,0,0,0,0
80,2024-05-27T01:19:00,2.5,西北西,6.2,西北西,21.9,67.2,0,0,0,0
81,2024-05-27T01:20:00,2.7,西北西,6.2,西北西,21.9,67.3,0,0,0,0
82,2024-05-27T01:21:00,2.9,西北西,7.1,西,21.9,66.9,0,0,0,0
83,2024-05-27T01:22:00,3.1,西北西,7.1,西,21.8,66.4,0,0,0,0
84,2024-05-27T01:23:00,3.3,西北西,7.5,西北西,21.8,66.5,0,0,0,0
85,2024-05-27T01:24:00,3.4,西北西,7.5,西北西,21.8,67,0,0,0,0
86,2024-05-27T01:25:00,3.7,西,8.2,西,21.9,67,0,0,0,0
87,2024-05-27T01:26:00,3.8,西,9.5,西,21.9,66.9,0,0,0,0
88,2024-05-27T01:27:00,4.1,西,9.5,西,21.9,66.9,0,0,0,0
89,2024-05-27T01:28:00,4.5,西,9.5,西,21.9,66.6,0,0,0,0
90,2024-05-27T01:29:00,4.7,西,9.5,西,21.9,66.6,0,0,0,0
91,2024-05-27T01:30:00,4.9,西,9.5,西,21.9,66.6,0,0,0,0
92,2024-05-27T01:31:00,4.8,西,9.5,西,21.9,67.2,0,0,0,0
93,2024-05-27T01:32:00,4.9,西,9.5,西,21.9,66.8,0,0,0,0
94,2024-05-27T01:33:00,4.8,西,9.5,西,22,66.9,0,0,0,0
95,2024-05-27T01:34:00,4.9,西,9.5,西,21.9,66.8,0,0,0,0
96,2024-05-27T01:35:00,4.5,西,9.5,西,22,66,0,0,0,0
97,2024-05-27T01:36:00,4.1,西,9.3,南南西,22,66.1,0,0,0,0
98,2024-05-27T01:37:00,3.9,西,9.3,南南西,21.9,66.4,0,0,0,0
99,2024-05-27T01:38:00,3.6,西,9.3,南南西,21.9,66.8,0,0,0,0
100,2024-05-27T01:39:00,3.7,西,9.8,西北西,21.9,66.7,0,0,0,0
101,2024-05-27T01:40:00,3.6,西,9.8,西北西,21.9,66.4,0,0,0,0
102,2024-05-27T01:41:00,3.6,西,9.8,西北西,21.9,66.7,0,0,0,0
103,2024-05-27T01:42:00,3.7,西,9.8,西北西,21.9,66.5,0,0,0,0
104,2024-05-27T01:43:00,3.6,西,9.8,西北西,22,66.6,0,0,0,0
105,2024-05-27T01:44:00,3.5,西北西,9.8,西北西,21.9,66.2,0,0,0,0
106,2024-05-27T01:45:00,3.8,西北西,9.8,西北西,22,67,0,0,0,0
107,2024-05-27T01:46:00,4.2,西北西,9.8,西北西,22,67.1,0,0,0,0
108,2024-05-27T01:47:00,4.2,西,9.8,西北西,22,66.9,0,0,0,0
109,2024-05-27T01:48:00,4.1,西,9.8,西北西,21.9,66.5,0,0,0,0
110,2024-05-27T01:49:00,3.7,西北西,7.5,西,21.9,66.2,0,0,0,0
111,2024-05-27T01:50:00,3.5,西北西,7.5,西,21.9,66.3,0,0,0,0
112,2024-05-27T01:51:00,3.3,西北西,7.5,西,21.8,67.2,0,0,0,0
113,2024-05-27T01:52:00,3.2,西北西,9.9,西南西,21.8,66.9,0,0,0,0
114,2024-05-27T01:53:00,3.3,西,9.9,西南西,21.8,66.4,0,0,0,0
115,2024-05-27T01:54:00,3.1,西,9.9,西南西,21.8,66.5,0,0,0,0
116,2024-05-27T01:55:00,2.7,西,9.9,西南西,21.8,66.6,0,0,0,0
117,2024-05-27T01:56:00,2.3,西,9.9,西南西,21.8,67.1,0,0,0,0
118,2024-05-27T01:57:00,2.2,西北西,9.9,西南西,21.8,67.5,0,0,0,0
119,2024-05-27T01:58:00,2.2,北西,9.9,西南西,21.7,67.2,0,0,0,0
120,2024-05-27T01:59:00,2,北西,9.9,西南西,21.7,67.7,0,0,0,0
121,2024-05-27T02:00:00,2,西北西,9.9,西南西,21.7,67.3,0,0,0,0
122,2024-05-27T02:01:00,2,北,9.9,西南西,21.7,66.5,0,0,0,0
123,2024-05-27T02:02:00,1.8,北北東,9.8,西南西,21.7,66.4,0,0,0,0
124,2024-05-27T02:03:00,1.4,北北東,4.1,東南東,21.8,66.2,0,0,0,0
125,2024-05-27T02:04:00,1.6,北,5,北西,21.8,66.3,0,0,0,0
126,2024-05-27T02:05:00,1.6,北北西,5,北西,21.8,66,0,0,0,0
127,2024-05-27T02:06:00,1.6,北北西,5,北西,21.8,66,0,0,0,0
128,2024-05-27T02:07:00,1.5,北,5,北西,21.8,66.2,0,0,0,0
129,2024-05-27T02:08:00,1.8,北,5.8,北西,21.8,66.3,0,0,0,0
130,2024-05-27T02:09:00,2,北西,5.8,北西,21.8,66.5,0,0,0,0
131,2024-05-27T02:10:00,2.2,西北西,7.1,西,21.9,66.3,0,0,0,0
132,2024-05-27T02:11:00,2.4,西北西,10.3,西南西,21.9,66.8,0,0,0,0
133,2024-05-27T02:12:00,2.6,西北西,10.3,西南西,21.9,66.1,0,0,0,0
134,2024-05-27T02:13:00,2.7,西,10.3,西南西,21.9,66.1,0,0,0,0
135,2024-05-27T02:14:00,2.9,西,10.9,西南西,21.9,66.2,0,0,0,0
136,2024-05-27T02:15:00,3.3,西,10.9,西南西,21.9,66.1,0,0,0,0
137,2024-05-27T02:16:00,3.6,西,10.9,西南西,21.9,65.9,0,0,0,0
138,2024-05-27T02:17:00,4,西,10.9,西南西,21.9,66,0,0,0,0
139,2024-05-27T02:18:00,4,西,10.9,西南西,21.8,65.8,0,0,0,0
140,2024-05-27T02:19:00,4,西,10.9,西南西,21.9,66.1,0,0,0,0
141,2024-05-27T02:20:00,4.2,西,10.9,西南西,21.8,66.3,0,0,0,0
142,2024-05-27T02:21:00,4.2,西,10.9,西南西,21.8,66.6,0,0,0,0
143,2024-05-27T02:22:00,4.3,西,10.9,西南西,21.9,67,0,0,0,0
144,2024-05-27T02:23:00,4.1,西,10.9,西南西,21.9,66.7,0,0,0,0
145,2024-05-27T02:24:00,4,西,9.4,西,21.8,66.5,0,0,0,0
146,2024-05-27T02:25:00,3.8,西,9.4,西,21.8,66.4,0,0,0,0
147,2024-05-27T02:26:00,3.7,西,9.4,西,21.9,66.7,0,0,0,0
148,2024-05-27T02:27:00,3.4,西,7.9,西北西,21.9,66.2,0,0,0,0
149,2024-05-27T02:28:00,3.3,西,7.9,西北西,21.9,66.4,0,0,0,0
150,2024-05-27T02:29:00,3.3,西,7.9,西北西,21.9,66.7,0,0,0,0
151,2024-05-27T02:30:00,2.9,西,7.8,西南西,21.9,66.9,0,0,0,0
152,2024-05-27T02:31:00,2.7,西,6.9,西北西,21.8,66.7,0,0,0,0
153,2024-05-27T02:32:00,2.7,西,6.9,西北西,21.9,67.1,0,0,0,0
154,2024-05-27T02:33:00,2.8,西北西,6.9,西北西,21.8,67.5,0,0,0,0
155,2024-05-27T02:34:00,2.6,西北西,6.9,西北西,21.8,67.3,0,0,0,0
156,2024-05-27T02:35:00,2.5,西北西,6.9,西北西,21.8,67.2,0,0,0,0
157,2024-05-27T02:36:00,2.6,西北西,7.6,西,21.8,67.1,0,0,0,0
158,2024-05-27T02:37:00,2.7,西北西,7.6,西,21.8,67.6,0,0,0,0
159,2024-05-27T02:38:00,2.9,西北西,8.3,南西,21.9,67.4,0,0,0,0
160,2024-05-27T02:39:00,2.8,西北西,8.3,南西,21.9,67.2,0,0,0,0
161,2024-05-27T02:40:00,2.8,西北西,8.3,南西,21.9,67.2,0,0,0,0
162,2024-05-27T02:41:00,2.8,西北西,8.3,南西,21.9,67.4,0,0,0,0
163,2024-05-27T02:42:00,2.6,西,8.3,南西,21.8,67.4,0,0,0,0
164,2024-05-27T02:43:00,2.4,西,8.3,南西,21.8,67.4,0,0,0,0
165,2024-05-27T02:44:00,2.2,西,8.3,南西,21.8,67.7,0,0,0,0
166,2024-05-27T02:45:00,2.4,西南西,8.3,南西,21.8,67.8,0,0,0,0
167,2024-05-27T02:46:00,2.5,西南西,8.3,南西,21.8,67.7,0,0,0,0
168,2024-05-27T02:47:00,2.5,南西,8.3,南西,21.8,67.8,0,0,0,0
169,2024-05-27T02:48:00,2.3,西南西,6.6,南,21.8,68,0,0,0,0
170,2024-05-27T02:49:00,2.3,西南西,6.6,南,21.8,68.1,0,0,0,0
171,2024-05-27T02:50:00,2.4,西南西,6.6,南,21.8,67.9,0,0,0,0
172,2024-05-27T02:51:00,2.2,西南西,6.6,南,21.8,67.6,0,0,0,0
173,2024-05-27T02:52:00,2.5,西南西,7.1,西,21.8,67.7,0,0,0,0
174,2024-05-27T02:53:00,2.8,西,7.1,西,21.8,68.2,0,0,0,0
175,2024-05-27T02:54:00,3,西,7.1,西,21.9,68.3,0,0,0,0
176,2024-05-27T02:55:00,2.8,西,7.1,西,21.8,68.4,0,0,0,0
177,2024-05-27T02:56:00,2.8,西,7.1,西,21.8,68.1,0,0,0,0
178,2024-05-27T02:57:00,2.9,西,8.3,西南西,21.7,67.7,0,0,0,0
179,2024-05-27T02:58:00,2.7,西,8.3,西南西,21.7,67.8,0,0,0,0
180,2024-05-27T02:59:00,2.9,西,8.3,西南西,21.7,68,0,0,0,0
181,2024-05-27T03:00:00,2.9,西,8.3,西南西,21.7,67.9,0,0,0,0
182,2024-05-27T03:01:00,2.9,西,8.3,西南西,21.7,67.9,0,0,0,0
183,2024-05-27T03:02:00,2.7,西南西,8.3,西南西,21.7,68.1,0,0,0,0
184,2024-05-27T03:03:00,2.8,西南西,8.3,西南西,21.7,68.2,0,0,0,0
185,2024-05-27T03:04:00,2.9,西南西,8.3,西南西,21.7,68,0,0,0,0
186,2024-05-27T03:05:00,3.1,西南西,8.3,西南西,21.7,68,0,0,0,0
187,2024-05-27T03:06:00,2.9,西南西,8.3,西南西,21.7,68.2,0,0,0,0
188,2024-05-27T03:07:00,2.8,西南西,6.7,西南西,21.7,68.5,0,0,0,0
189,2024-05-27T03:08:00,2.9,西南西,6.7,西南西,21.7,68.5,0,0,0,0
190,2024-05-27T03:09:00,2.7,南西,6.7,西南西,21.7,68,0,0,0,0
191,2024-05-27T03:10:00,2.6,西南西,6.7,西南西,21.6,68.1,0,0,0,0
192,2024-05-27T03:11:00,2.6,西南西,6.7,西南西,21.6,68.3,0,0,0,0
193,2024-05-27T03:12:00,2.8,西南西,7,北西,21.6,69,0,0,0,0
194,2024-05-27T03:13:00,2.6,南西,7,北西,21.6,68.7,0,0,0,0
195,2024-05-27T03:14:00,2.3,南西,7,北西,21.6,68.6,0,0,0,0
196,2024-05-27T03:15:00,2,南西,7,北西,21.6,68.6,0,0,0,0
197,2024-05-27T03:16:00,2,南西,7,北西,21.6,68.8,0,0,0,0
198,2024-05-27T03:17:00,2,南西,7,北西,21.6,69.1,0,0,0,0
199,2024-05-27T03:18:00,1.9,西南西,7,北西,21.6,69,0,0,0,0
200,2024-05-27T03:19:00,2.1,西,7,北西,21.6,69,0,0,0,0
201,2024-05-27T03:20:00,2.3,西,7,北西,21.6,69.4,0,0,0,0
202,2024-05-27T03:21:00,2.5,西南西,7,北西,21.6,69.3,0,0,0,0
203,2024-05-27T03:22:00,2.3,西南西,5.6,西北西,21.5,68.8,0,0,0,0
204,2024-05-27T03:23:00,2.3,西,5.6,西北西,21.6,69.3,0,0,0,0
205,2024-05-27T03:24:00,2.4,西南西,5.6,西北西,21.6,69.4,0,0,0,0
206,2024-05-27T03:25:00,2.6,西南西,5.6,西北西,21.6,69.2,0,0,0,0
207,2024-05-27T03:26:00,2.6,西,5.6,西北西,21.6,69.1,0,0,0,0
208,2024-05-27T03:27:00,2.5,西,5.6,西北西,21.6,69.1,0,0,0,0
209,2024-05-27T03:28:00,2.4,西,5.6,西北西,21.6,69.1,0,0,0,0
210,2024-05-27T03:29:00,2.4,西,5.6,西北西,21.5,69.4,0,0,0,0
211,2024-05-27T03:30:00,2.3,西北西,5.1,西南西,21.5,70.5,0,0,0,0
212,2024-05-27T03:31:00,2.3,西北西,4.9,北西,21.4,71,0,0,0,0
213,2024-05-27T03:32:00,2.3,西北西,6.3,西南西,21.3,72.2,0,0,0,0
214,2024-05-27T03:33:00,2.4,西北西,6.6,西,21.2,72.1,0,0,0,0
215,2024-05-27T03:34:00,2.4,西北西,6.6,西,21.1,72.3,0,0,0,0
216,2024-05-27T03:35:00,2.3,西北西,6.6,西,21,73.2,0,0,0,0
217,2024-05-27T03:36:00,2.5,西北西,7.4,南南東,20.9,74.2,0,0,0,0
218,2024-05-27T03:37:00,2.6,西北西,7.4,南南東,20.8,74.2,0,0,0,0
219,2024-05-27T03:38:00,2.5,西北西,7.4,南南東,20.7,75.8,0,0,0,0
220,2024-05-27T03:39:00,2.5,西北西,7.4,南南東,20.6,76.9,0,0,0,0
221,2024-05-27T03:40:00,2.7,西,7.4,南南東,20.5,78.1,0,0,0,0
222,2024-05-27T03:41:00,2.9,西南西,9.1,西南西,20.3,78.8,0,0,0,0
223,2024-05-27T03:42:00,3.3,西南西,9.1,西南西,20.2,79.2,0,0,0,0
224,2024-05-27T03:43:00,3.7,西南西,9.8,南西,20.2,80.3,0,0,0,0
225,2024-05-27T03:44:00,3.7,西南西,9.8,南西,20.1,79.9,0,0,0,0
226,2024-05-27T03:45:00,3.6,西南西,9.8,南西,20.2,79.3,0.5,0.5,0.5,0.5
227,2024-05-27T03:46:00,3.3,西,9.8,南西,20.3,79.3,0.5,0.5,0.5,0.5
228,2024-05-27T03:47:00,3.4,西,9.8,南西,20.2,80,0.5,0.5,0.5,0.5
229,2024-05-27T03:48:00,3.7,西,9.8,南西,20.2,79.9,0.5,0.5,0.5,0.5
230,2024-05-27T03:49:00,3.7,西,9.8,南西,20.1,80.4,0.5,0.5,0.5,0.5
231,2024-05-27T03:50:00,3.7,西南西,9.8,南西,20,80.9,0.5,0.5,0.5,0.5
232,2024-05-27T03:51:00,3.4,西南西,9.8,南西,20,81.7,0.5,0.5,0.5,0.5
233,2024-05-27T03:52:00,3,西,9.8,南西,19.9,82.4,0.5,0.5,0.5,0.5
234,2024-05-27T03:53:00,2.5,西,8,北西,19.9,83.2,0.5,0.5,0.5,0.5
235,2024-05-27T03:54:00,2.3,西北西,8,北西,19.8,83.8,0.5,0.5,0.5,0.5
236,2024-05-27T03:55:00,2.4,西北西,8,北西,19.8,83.8,0,0.5,0.5,0.5
237,2024-05-27T03:56:00,2.5,西,8,北西,19.8,83.9,0,0.5,0.5,0.5
238,2024-05-27T03:57:00,2.3,西,6.9,南南西,19.8,84,0,0.5,0.5,0.5
239,2024-05-27T03:58:00,2.1,西北西,6.9,南南西,19.7,84.3,0,0.5,0.5,0.5
240,2024-05-27T03:59:00,2,西北西,6.9,南南西,19.7,84.4,0,0.5,0.5,0.5
241,2024-05-27T04:00:00,1.7,西北西,6,南南西,19.7,84.9,0,0.5,0.5,0.5
242,2024-05-27T04:01:00,1.7,西北西,5.6,西南西,19.6,85.3,0,0.5,0.5,0.5
243,2024-05-27T04:02:00,1.6,西北西,5.6,西南西,19.6,84.6,0,0.5,0.5,0.5
244,2024-05-27T04:03:00,1.4,西北西,3.9,北北西,19.7,83.3,0,0.5,0.5,0.5
245,2024-05-27T04:04:00,1.5,西北西,3.9,北北西,19.7,84.8,0,0.5,0.5,0.5
246,2024-05-27T04:05:00,1.3,西北西,3.8,南,19.7,85.4,0,0.5,0.5,0.5
247,2024-05-27T04:06:00,1.5,北西,3.9,北東,19.5,84.6,0,0.5,0.5,0.5
248,2024-05-27T04:07:00,1.6,北北西,4.1,北北東,19.4,85,0,0.5,0.5,0.5
249,2024-05-27T04:08:00,1.7,北,4.1,北北東,19.4,85.1,0,0.5,0.5,0.5
250,2024-05-27T04:09:00,1.7,北,4.1,北北東,19.4,85,0,0.5,0.5,0.5
251,2024-05-27T04:10:00,1.8,北,4.9,北西,19.4,85.3,0,0.5,0.5,0.5
252,2024-05-27T04:11:00,2,北,4.9,北西,19.6,83.8,0,0.5,0.5,0.5
253,2024-05-27T04:12:00,2.2,北,4.9,北西,19.7,83.1,0,0.5,0.5,0.5
254,2024-05-27T04:13:00,2.3,北,4.9,北西,19.7,82.4,0,0.5,0.5,0.5
255,2024-05-27T04:14:00,2.6,北北西,4.9,北西,19.7,82.2,0,0.5,0.5,0.5
256,2024-05-27T04:15:00,2.7,北北西,5.8,西,19.7,83.2,0,0.5,0.5,0.5
257,2024-05-27T04:16:00,2.8,北西,5.8,西,19.7,83.2,0,0.5,0.5,0.5
258,2024-05-27T04:17:00,2.7,北西,5.8,西,19.6,82.8,0,0.5,0.5,0.5
259,2024-05-27T04:18:00,2.7,西北西,5.8,西,19.6,83.1,0,0.5,0.5,0.5
260,2024-05-27T04:19:00,2.8,西北西,5.8,西,19.7,82.9,0,0.5,0.5,0.5
261,2024-05-27T04:20:00,2.7,北西,5.8,西,19.7,81.8,0,0.5,0.5,0.5
262,2024-05-27T04:21:00,2.7,西北西,6.1,西南西,19.7,81.8,0,0.5,0.5,0.5
263,2024-05-27T04:22:00,2.8,西北西,6.1,西南西,19.7,81.7,0,0.5,0.5,0.5
264,2024-05-27T04:23:00,2.9,西北西,6.1,西南西,19.8,83,0,0.5,0.5,0.5
265,2024-05-27T04:24:00,3.1,西北西,6.9,西,19.7,82.7,0,0.5,0.5,0.5
266,2024-05-27T04:25:00,3.5,西北西,8.3,西,19.7,81.6,0.5,1,1,1
267,2024-05-27T04:26:00,3.5,西北西,8.3,西,19.7,81.3,0.5,1,1,1
268,2024-05-27T04:27:00,3.4,西,8.3,西,19.7,82.6,0.5,1,1,1
269,2024-05-27T04:28:00,3.3,西北西,8.3,西,19.5,83.4,0.5,1,1,1
270,2024-05-27T04:29:00,3.3,西北西,8.3,西,19.4,84,0.5,1,1,1
271,2024-05-27T04:30:00,3.3,西北西,8.3,西,19.5,83.4,0.5,1,1,1
272,2024-05-27T04:31:00,3.3,西北西,8.3,西,19.5,81.7,0.5,1,1,1
273,2024-05-27T04:32:00,3,北西,8.3,西,19.6,80.8,0.5,1,1,1
274,2024-05-27T04:33:00,3,北北西,8.3,西,19.6,80.3,0.5,1,1,1
275,2024-05-27T04:34:00,2.9,北,8.3,西,19.7,79.9,0.5,1,1,1
276,2024-05-27T04:35:00,2.4,北北東,5.5,北北東,19.7,79.1,0,1,1,1
277,2024-05-27T04:36:00,2.2,北北東,5.5,北北東,19.7,79,0,1,1,1
278,2024-05-27T04:37:00,2.2,北北東,5.5,北北東,19.7,78.8,0,1,1,1
279,2024-05-27T04:38:00,2.4,北北東,5.5,北北東,19.8,78.2,0,1,1,1
280,2024-05-27T04:39:00,2.5,北北東,5.5,北北東,19.8,77.9,0,1,1,1
281,2024-05-27T04:40:00,2.6,北,5.5,北北東,19.8,77.4,0,1,1,1
282,2024-05-27T04:41:00,2.4,北,5.5,北北東,19.8,77.8,0,1,1,1
283,2024-05-27T04:42:00,2.6,北,5.5,北北東,19.8,78.7,0,1,1,1
284,2024-05-27T04:43:00,2.4,北北西,5.5,北北東,19.8,78.7,0,1,1,1
285,2024-05-27T04:44:00,2.5,北北西,5.7,西南西,19.9,79.1,0,1,1,1
286,2024-05-27T04:45:00,2.4,北西,5.7,西南西,20,78.5,0,0.5,1,1
287,2024-05-27T04:46:00,2.6,北西,5.7,西南西,19.9,78.7,0,0.5,1,1
288,2024-05-27T04:47:00,2.7,北西,6.5,南西,19.9,79.1,0,0.5,1,1
289,2024-05-27T04:48:00,2.6,西北西,6.5,南西,19.9,79.4,0,0.5,1,1
290,2024-05-27T04:49:00,2.4,西北西,6.5,南西,19.9,78.8,0,0.5,1,1
291,2024-05-27T04:50:00,2.3,西北西,6.5,南西,19.9,78.9,0,0.5,1,1
292,2024-05-27T04:51:00,2.2,西北西,6.5,南西,19.8,79.3,0,0.5,1,1
293,2024-05-27T04:52:00,2.1,北西,6.5,南西,19.7,80.1,0,0.5,1,1
294,2024-05-27T04:53:00,2,北北西,6.5,南西,19.7,80.5,0,0.5,1,1
295,2024-05-27T04:54:00,1.8,北,6.5,南西,19.7,80.3,0,0.5,1,1
296,2024-05-27T04:55:00,1.9,北,6.5,南西,19.8,79.8,0,0.5,1,1
297,2024-05-27T04:56:00,1.9,北北東,6.5,南西,19.9,79.1,0,0.5,1,1
298,2024-05-27T04:57:00,1.7,北北東,3.6,南南西,19.9,79.3,0,0.5,1,1
299,2024-05-27T04:58:00,1.8,北北東,4,北北西,19.9,79.2,0,0.5,1,1
300,2024-05-27T04:59:00,1.9,北北東,4,北北西,20,78.6,0,0.5,1,1
301,2024-05-27T05:00:00,2.1,北北東,4.3,北東,20.1,78,0,0.5,1,1
302,2024-05-27T05:01:00,2.2,北北東,4.3,北東,20,78.2,0,0.5,1,1
303,2024-05-27T05:02:00,2.3,北北東,5.2,北,20,79.2,0,0.5,1,1
304,2024-05-27T05:03:00,2.3,北北東,5.2,北,19.9,80,0,0.5,1,1
305,2024-05-27T05:04:00,2.2,北,5.2,北,19.9,79.9,0,0.5,1,1
306,2024-05-27T05:05:00,2.1,北,5.2,北,19.9,79.9,0,0.5,1,1
307,2024-05-27T05:06:00,2.1,北,5.2,北,19.7,80.8,0,0.5,1,1
308,2024-05-27T05:07:00,2,北,5.2,北,19.7,80.5,0,0.5,1,1
309,2024-05-27T05:08:00,1.9,北,5.2,北,19.7,80.4,0,0.5,1,1
310,2024-05-27T05:09:00,1.8,北,5.2,北,19.7,80.9,0,0.5,1,1
311,2024-05-27T05:10:00,1.7,北,5.2,北,19.6,81,0,0.5,1,1
312,2024-05-27T05:11:00,1.7,北,5.2,北,19.7,81.3,0,0.5,1,1
313,2024-05-27T05:12:00,1.6,北,4.5,北西,19.7,81.6,0,0.5,1,1
314,2024-05-27T05:13:00,1.8,北,4.7,北西,19.7,81.3,0,0.5,1,1
315,2024-05-27T05:14:00,1.9,北,4.7,北西,19.7,81.4,0,0.5,1,1
316,2024-05-27T05:15:00,2.1,北,4.7,北西,19.6,81.7,0,0.5,1,1
317,2024-05-27T05:16:00,2.3,北,4.8,北東,19.6,81.5,0,0.5,1,1
318,2024-05-27T05:17:00,2.3,北,4.8,北東,19.7,80.9,0,0.5,1,1
319,2024-05-27T05:18:00,2.4,北,4.8,北東,19.7,81,0,0.5,1,1
320,2024-05-27T05:19:00,2.5,北,4.8,北東,19.7,81.4,0,0.5,1,1
321,2024-05-27T05:20:00,2.6,北,6.7,西,19.8,81.6,0,0.5,1,1
322,2024-05-27T05:21:00,2.9,北北西,6.7,西,19.9,79.9,0,0.5,1,1
323,2024-05-27T05:22:00,3.1,北北西,7.1,西南西,20,79.6,0,0.5,1,1
324,2024-05-27T05:23:00,3.1,北北西,7.1,西南西,20,79.7,0,0.5,1,1
325,2024-05-27T05:24:00,3.2,北西,7.1,西南西,20,79.7,0,0.5,1,1
326,2024-05-27T05:25:00,3.4,西北西,7.1,西南西,20,79.1,0,0,1,1
327,2024-05-27T05:26:00,3.6,西北西,8.9,西,20,78.6,0,0,1,1
328,2024-05-27T05:27:00,3.6,西,8.9,西,19.8,78.9,0,0,1,1
329,2024-05-27T05:28:00,3.6,西,8.9,西,19.8,78.1,0,0,1,1
330,2024-05-27T05:29:00,3.5,西南西,8.9,西,19.9,77.3,0,0,1,1
331,2024-05-27T05:30:00,3.3,西,8.9,西,19.8,77.9,0,0,1,1
332,2024-05-27T05:31:00,3.1,北西,8.9,西,19.7,78.9,0,0,1,1
333,2024-05-27T05:32:00,2.9,北東,8.9,西,19.5,79.5,0,0,1,1
334,2024-05-27T05:33:00,2.7,東北東,8.9,西,19.4,80.3,0,0,1,1
335,2024-05-27T05:34:00,2.6,東北東,8.9,西,19.4,81.1,0,0,1,1
336,2024-05-27T05:35:00,2.4,東北東,8.9,西,19.4,80.4,0,0,1,1
337,2024-05-27T05:36:00,2.1,北東,6.3,東南東,19.4,81.7,0,0,1,1
338,2024-05-27T05:37:00,2.2,北東,4.7,北東,19.4,81.5,0,0,1,1
339,2024-05-27T05:38:00,2.3,北北東,5.2,北西,19.6,80.6,0,0,1,1
340,2024-05-27T05:39:00,2.5,北北東,6,西,19.7,80.5,0,0,1,1
341,2024-05-27T05:40:00,2.8,北,6,西,19.7,80.2,0,0,1,1
342,2024-05-27T05:41:00,3.2,北北西,8,西,19.7,79.6,0,0,1,1
343,2024-05-27T05:42:00,3.3,北西,8,西,19.8,79,0,0,1,1
344,2024-05-27T05:43:00,3.6,北西,8,西,19.9,79.6,0,0,1,1
345,2024-05-27T05:44:00,3.9,西北西,8,西,19.9,79.4,0,0,1,1
346,2024-05-27T05:45:00,4,西北西,8,西,19.9,79.4,0,0,1,1
347,2024-05-27T05:46:00,4.4,西北西,8,西,19.8,78.6,0,0,1,1
348,2024-05-27T05:47:00,4.5,西,8,西,19.9,78.3,0,0,1,1
349,2024-05-27T05:48:00,4.9,西,11,西南西,19.9,77.8,0,0,1,1
350,2024-05-27T05:49:00,5.2,西,11,西南西,19.8,77.7,0,0,1,1
351,2024-05-27T05:50:00,5.1,西,11,西南西,19.9,78.8,0,0,1,1
352,2024-05-27T05:51:00,5,西,11,西南西,19.8,78.3,0,0,1,1
353,2024-05-27T05:52:00,4.8,西,11,西南西,19.8,78.5,0,0,1,1
354,2024-05-27T05:53:00,4.8,西,11,西南西,19.8,78.8,0,0,1,1
355,2024-05-27T05:54:00,4.5,西南西,11,西南西,19.8,78.2,0,0,1,1
356,2024-05-27T05:55:00,4.1,西南西,11,西南西,19.7,78,0,0,1,1
357,2024-05-27T05:56:00,3.6,西南西,11,西南西,19.7,77.6,0,0,1,1
358,2024-05-27T05:57:00,3.3,西南西,11,西南西,19.7,78.3,0,0,1,1
359,2024-05-27T05:58:00,2.7,西南西,7.5,南西,19.8,77.2,0,0,1,1
360,2024-05-27T05:59:00,2.4,西南西,6.8,西南西,20,75.8,0,0,1,1
361,2024-05-27T06:00:00,2.2,西南西,5.1,西,20,75.7,0,0,1,1
362,2024-05-27T06:01:00,2,西南西,5,北北西,20,75.1,0,0,1,1
363,2024-05-27T06:02:00,1.9,西,5,北北西,20,75.5,0,0,1,1
364,2024-05-27T06:03:00,1.8,西,5,北北西,20,75.6,0,0,1,1
365,2024-05-27T06:04:00,2,西,5.3,西南西,19.9,75.9,0,0,1,1
366,2024-05-27T06:05:00,2.2,西北西,6,西南西,19.9,76.5,0,0,1,1
367,2024-05-27T06:06:00,2.6,西北西,6.1,西北西,19.9,76.1,0,0,1,1
368,2024-05-27T06:07:00,3.1,西北西,6.2,西北西,19.9,76.3,0,0,1,1
369,2024-05-27T06:08:00,3.1,西北西,6.2,西北西,19.9,76.5,0,0,1,1
370,2024-05-27T06:09:00,3.2,西北西,6.2,西北西,20,76.1,0,0,1,1
371,2024-05-27T06:10:00,3.4,西北西,6.2,西北西,19.9,76.8,0,0,1,1
372,2024-05-27T06:11:00,3.6,西,6.4,西,19.9,76.9,0,0,1,1
373,2024-05-27T06:12:00,3.7,西,6.4,西,19.9,77.1,0,0,1,1
374,2024-05-27T06:13:00,3.8,西,6.4,西,19.9,76.7,0,0,1,1
375,2024-05-27T06:14:00,3.6,西,6.4,西,19.8,77.1,0,0,1,1
376,2024-05-27T06:15:00,3.4,西,6.4,西,19.8,77.3,0,0,1,1
377,2024-05-27T06:16:00,3.1,西南西,6.4,西,19.8,76.5,0,0,1,1
378,2024-05-27T06:17:00,2.6,西南西,6.4,西,19.7,77.9,0,0,1,1
379,2024-05-27T06:18:00,2.4,西南西,6.4,西,19.5,80.2,0,0,1,1
380,2024-05-27T06:19:00,2.2,南西,6.4,西,19.4,79.8,0,0,1,1
381,2024-05-27T06:20:00,1.9,南西,6.4,西,19.6,78.2,0,0,1,1
382,2024-05-27T06:21:00,1.7,南西,5,西,19.6,78.1,0,0,1,1
383,2024-05-27T06:22:00,1.6,西南西,4.7,南西,19.7,78.9,0,0,1,1
384,2024-05-27T06:23:00,1.7,西南西,4.9,西,19.7,79.4,0,0,1,1
385,2024-05-27T06:24:00,1.6,西南西,4.9,西,19.7,79.7,0,0,1,1
386,2024-05-27T06:25:00,1.6,西南西,4.9,西,19.7,78.7,0,0,1,1
387,2024-05-27T06:26:00,1.8,西,5.9,西,19.7,78.3,0,0,1,1
388,2024-05-27T06:27:00,2.1,西,6.1,西,19.7,78.6,0,0,1,1
389,2024-05-27T06:28:00,2.5,西,6.3,西北西,19.6,79.6,0,0,1,1
390,2024-05-27T06:29:00,2.8,西,6.3,西北西,19.5,79.5,0,0,1,1
391,2024-05-27T06:30:00,3.2,西,6.3,西北西,19.5,80.7,0,0,1,1
392,2024-05-27T06:31:00,3.3,西,6.3,西北西,19.5,81.5,0,0,1,1
393,2024-05-27T06:32:00,3.5,西,7.6,西南西,19.3,82.6,0,0,1,1
394,2024-05-27T06:33:00,3.8,西,7.6,西南西,19.1,82.2,0,0,1,1
395,2024-05-27T06:34:00,4.1,西,7.6,西南西,19,83,0,0,1,1
396,2024-05-27T06:35:00,4.5,西,7.6,西南西,19,84.2,0,0,1,1
397,2024-05-27T06:36:00,4.5,西,7.6,西南西,18.9,84.8,0,0,1,1
398,2024-05-27T06:37:00,4.5,西,7.6,西南西,18.9,85.8,0,0,1,1
399,2024-05-27T06:38:00,4.4,西,7.6,西南西,18.8,85.9,0,0,1,1
400,2024-05-27T06:39:00,4.3,西,7.6,西南西,18.7,85.9,0,0,1,1
401,2024-05-27T06:40:00,4.2,西南西,7.6,西南西,18.7,86.7,0,0,1,1
402,2024-05-27T06:41:00,4.1,西南西,7.6,西南西,18.7,85.7,0,0,1,1
403,2024-05-27T06:42:00,3.9,西南西,7.4,西,18.7,86,0,0,1,1
404,2024-05-27T06:43:00,3.4,西南西,7.4,西,18.7,87.8,0,0,1,1
405,2024-05-27T06:44:00,3.3,西南西,7.4,西,18.7,87,0,0,1,1
406,2024-05-27T06:45:00,2.9,南西,5.4,西南西,18.7,88.1,0,0,1,1
407,2024-05-27T06:46:00,2.6,南西,5.4,西南西,18.6,89.1,0,0,1,1
408,2024-05-27T06:47:00,2.2,南南西,5.2,西南西,18.4,90.2,0,0,1,1
409,2024-05-27T06:48:00,2,南南西,4.6,南南西,18.5,90.6,0,0,1,1
410,2024-05-27T06:49:00,1.9,南南西,4.6,南南西,18.6,89.2,0,0,1,1
411,2024-05-27T06:50:00,1.8,南南西,4.3,南西,18.7,87.7,0,0,1,1
412,2024-05-27T06:51:00,1.6,南南西,4.3,南西,18.7,87.8,0,0,1,1
413,2024-05-27T06:52:00,1.5,南南西,4.3,南西,18.8,88.3,0,0,1,1
414,2024-05-27T06:53:00,1.6,南南西,4.8,西南西,18.8,88.1,0,0,1,1
415,2024-05-27T06:54:00,1.7,南南西,4.8,西南西,18.8,87.7,0,0,1,1
416,2024-05-27T06:55:00,1.9,南西,5,西南西,18.7,87.7,0,0,1,1
417,2024-05-27T06:56:00,2.1,南西,5,西南西,18.7,87.9,0,0,1,1
418,2024-05-27T06:57:00,2.4,南西,5,西南西,18.7,88.3,0,0,1,1
419,2024-05-27T06:58:00,2.6,南西,5,西南西,18.8,88,0,0,1,1
420,2024-05-27T06:59:00,2.6,南西,5,西南西,18.9,88.5,0,0,1,1
421,2024-05-27T07:00:00,2.7,西南西,5,西南西,18.9,88.4,0,0,1,1
422,2024-05-27T07:01:00,3.1,西南西,6.5,南西,18.8,88.6,0,0,1,1
423,2024-05-27T07:02:00,3.5,西南西,7.7,南西,18.9,88.4,0,0,1,1
424,2024-05-27T07:03:00,3.5,西南西,7.7,南西,19,88.1,0,0,1,1